Wind_Speed
21 22 24 25 24 25 28 31 34 34 35 36 36 37 38 38 38 39 39 40 41 43 44 44 45 46 46 46 47 47 47 47 47 47 47 48 47 46 46 45 45 45 45 45
20 21 23 24 25 25 27 30 32 34 35 36 37 37 38 39 39 40 40 40 40 41 42 43 44 45 45 46 46 47 47 47 47 47 48 48 48 48 47 46 45 45 45 45
19 20 21 22 24 25 26 29 31 34 34 34 36 37 38 39 38 39 41 41 40 40 41 42 43 44 44 44 45 46 47 46 47 47 48 48 48 48 47 46 46 46 45 45
19 19 20 20 21 23 26 27 28 31 33 32 33 35 36 37 38 39 40 41 42 41 41 41 42 43 44 44 44 45 45 45 46 47 48 48 47 47 47 46 46 46 46 45
18 19 19 18 19 21 24 26 27 29 31 32 32 34 35 36 37 38 39 39 40 41 41 41 42 42 43 43 43 43 44 44 44 45 45 46 46 45 45 45 45 45 46 45
15 16 16 17 19 20 22 24 26 27 28 30 32 34 34 35 37 38 37 38 39 39 40 41 42 42 42 42 42 42 42 43 43 43 44 45 45 45 45 45 45 45 45 45
13 14 14 15 17 19 20 22 24 25 27 28 30 31 32 34 35 35 37 37 38 39 40 41 41 42 41 41 41 41 41 42 42 42 42 43 44 45 45 45 45 45 45 45
12 13 13 14 16 18 19 20 21 23 25 27 28 29 30 32 34 33 34 35 35 37 39 40 41 42 42 42 41 41 41 42 43 43 43 43 43 43 44 45 44 44 44 44
12 13 14 14 15 17 18 19 20 22 23 25 26 26 27 29 31 31 31 32 33 34 35 37 39 40 41 41 41 41 41 41 42 43 44 44 44 43 43 43 44 44 45 44
12 12 13 14 16 17 17 17 18 20 21 22 24 25 25 26 27 29 30 30 32 32 33 35 37 38 38 39 40 40 40 40 41 42 43 43 44 44 43 43 43 44 44 44
11 12 12 14 15 17 18 19 19 19 20 21 22 23 23 23 24 25 27 29 30 30 31 33 34 35 35 36 36 37 38 38 39 40 42 42 42 42 42 42 42 42 43 43
11 12 13 13 14 15 16 18 18 19 19 20 21 21 22 22 22 23 25 27 28 28 29 30 32 33 34 34 34 35 36 37 37 38 39 40 40 41 41 41 42 42 42 42
12 13 14 14 15 15 16 17 18 18 18 19 20 20 21 21 22 23 23 25 26 27 28 29 30 32 33 33 34 35 35 35 36 36 37 38 38 39 40 40 40 40 40 40
13 13 14 14 15 16 17 17 17 17 18 18 19 20 21 21 22 22 23 24 25 26 27 28 30 30 31 32 33 34 34 35 36 36 36 36 36 36 37 38 38 38 39 39
14 15 15 15 15 16 17 17 17 17 17 17 18 19 20 20 21 22 22 23 24 25 27 28 29 30 31 32 33 34 34 34 35 35 35 35 35 34 34 35 36 36 36 37
15 16 16 16 16 16 16 16 17 17 17 17 17 19 19 20 21 22 22 23 24 25 26 27 28 29 30 32 32 33 34 34 34 34 34 35 35 35 34 35 35 36 36 36
16 16 17 17 17 16 16 16 17 17 17 17 17 17 19 19 20 20 21 23 24 24 25 26 27 28 29 30 30 31 32 32 33 33 34 35 35 35 36 36 35 35 36 36
16 17 17 17 17 16 16 16 16 17 17 17 16 17 18 19 20 20 21 22 23 24 25 26 27 27 28 29 29 30 31 31 32 33 34 34 35 35 36 36 35 35 36 36
17 17 17 17 16 16 16 16 16 16 16 16 16 16 17 18 19 20 21 22 22 23 24 25 26 27 27 28 29 29 30 30 31 32 32 32 32 33 33 34 34 34 34 35
17 17 17 16 16 16 16 16 16 16 16 16 16 17 17 18 19 20 21 22 22 23 24 25 25 26 27 27 27 28 29 30 30 31 32 32 32 32 33 33 34 34 34 34
17 17 17 17 17 16 16 16 16 16 16 17 17 18 18 19 19 20 21 22 22 23 24 24 25 26 26 27 27 28 29 29 30 31 32 33 33 33 34 34 34 34 34 34
18 18 18 18 17 17 16 16 16 16 17 17 17 17 17 18 19 20 20 21 21 22 22 23 23 24 25 26 26 26 27 27 28 29 30 31 31 32 32 33 33 33 33 33
19 18 18 17 17 16 17 17 17 17 16 16 16 16 17 17 17 17 18 18 18 20 21 21 22 22 22 23 24 24 25 26 26 27 27 28 28 29 30 30 30 31 30 30
19 18 18 17 17 17 17 18 17 17 16 16 16 16 16 16 16 16 16 16 16 18 19 20 21 21 22 22 23 23 24 24 24 25 25 25 26 26 27 27 27 28 28 28
19 18 18 17 17 17 17 18 18 17 17 16 16 16 16 15 15 14 14 15 15 16 17 18 20 21 21 22 23 23 23 24 24 24 24 24 24 25 25 26 26 27 27 27
19 18 17 17 17 17 18 18 18 17 17 16 16 16 15 15 14 14 14 15 15 16 17 18 19 20 21 22 23 23 23 23 23 23 23 24 24 24 24 25 25 25 25 26
18 18 18 18 18 18 18 18 17 17 17 16 16 15 15 14 14 14 14 14 15 16 17 18 18 19 20 21 21 22 22 22 22 22 23 23 23 24 23 23 24 24 24 25
Wind_Direction
259 254 249 246 241 239 237 236 235 235 236 236 237 237 236 236 235 236 236 238 239 239 240 241 241 241 241 240 239 240 241 242 243 244 245 246 247 248 249 250 251 252 254 255
257 253 250 246 242 240 237 236 236 235 236 236 237 237 239 239 238 238 238 239 240 240 241 241 241 242 242 242 241 241 242 243 244 244 245 246 247 248 249 250 250 251 254 255
259 254 253 250 243 241 239 239 238 238 237 237 237 239 240 241 241 241 240 240 240 241 242 242 242 242 242 242 242 242 242 243 243 244 245 246 247 248 248 249 250 251 253 254
263 258 254 252 247 243 240 239 239 239 238 239 239 239 240 240 241 242 241 241 241 241 242 242 242 242 242 243 243 242 242 242 242 243 244 245 247 248 248 249 250 251 252 253
264 258 256 251 248 245 242 241 242 242 241 242 241 240 242 243 242 242 241 241 242 242 242 241 240 240 241 241 242 242 241 241 242 243 244 245 246 247 248 250 250 251 253 255
265 261 259 257 254 251 249 247 243 244 245 245 245 244 242 241 242 241 242 243 243 242 242 241 239 238 239 239 240 241 241 241 242 243 244 245 246 246 248 250 251 252 254 255
267 266 264 260 257 255 254 249 247 248 248 248 249 248 245 242 243 244 244 245 243 242 243 241 240 239 238 239 240 240 241 242 242 243 245 246 246 247 249 251 252 253 255 256
273 271 267 264 261 258 257 254 252 251 251 251 250 249 247 244 243 244 244 243 244 244 243 242 241 240 240 240 240 241 242 243 243 244 245 246 248 249 251 252 253 254 256 257
279 277 274 272 269 265 261 259 256 254 253 252 251 250 247 245 244 244 244 243 243 243 242 241 240 240 240 240 241 241 242 244 245 245 246 247 249 250 252 254 255 256 257 257
283 281 278 275 271 269 267 266 263 259 255 253 251 251 250 248 245 245 244 243 241 240 240 240 239 240 240 240 240 242 244 245 246 246 247 248 250 251 253 255 256 257 258 258
292 286 283 281 277 272 270 269 268 265 261 255 252 250 251 250 248 247 246 244 243 242 241 240 240 240 240 240 241 243 244 245 247 248 248 249 250 252 253 255 257 258 258 258
300 291 287 285 282 277 275 273 271 268 265 260 255 252 251 250 248 248 246 245 245 245 244 242 240 239 239 241 243 245 246 247 247 248 249 250 251 252 253 255 256 257 258 258
305 299 293 289 285 283 281 279 276 274 271 264 258 255 253 251 251 250 249 247 245 246 245 243 241 240 239 241 244 246 247 248 249 250 251 251 252 252 253 254 255 256 256 257
307 303 299 295 289 285 285 284 280 276 273 268 261 258 256 254 253 252 251 249 247 246 246 244 243 243 241 243 245 247 247 249 251 250 249 250 251 253 254 254 254 254 254 255
304 303 301 299 295 291 288 285 281 277 274 271 264 260 260 258 255 254 252 250 249 247 245 245 245 245 245 246 247 248 248 249 249 249 249 250 251 252 254 254 254 253 255 256
305 305 303 299 296 294 290 287 283 278 274 272 266 263 262 261 259 257 255 253 252 250 248 247 248 248 248 250 250 250 250 249 249 249 250 250 251 252 253 253 253 254 254 254
304 304 303 301 300 297 294 290 286 282 277 274 269 265 263 263 262 261 258 255 254 253 251 250 250 250 250 251 251 252 251 251 250 249 250 251 251 252 252 252 253 253 253 255
310 310 308 306 303 300 298 296 292 285 280 275 271 268 265 264 263 260 260 260 258 256 254 252 251 252 251 250 251 251 251 251 250 249 250 250 251 251 252 252 252 252 253 255
310 311 310 307 305 302 300 297 294 290 284 278 276 273 269 266 265 263 262 261 259 258 256 254 252 252 252 252 252 252 251 251 251 250 249 250 252 252 253 252 253 254 256 256
312 311 310 309 308 305 302 297 295 291 286 282 280 276 271 269 267 265 264 262 260 258 257 255 253 253 253 254 254 253 253 253 253 252 251 251 251 252 253 254 255 255 257 259
313 310 309 309 309 306 303 300 297 293 289 285 282 278 274 272 270 268 265 263 260 258 256 255 255 255 255 255 254 254 254 255 254 253 254 254 253 253 254 255 257 257 258 259
309 308 307 307 307 305 302 300 298 295 292 289 286 282 279 277 275 272 268 264 260 258 256 255 255 255 255 255 256 256 255 256 255 254 254 255 255 255 255 256 257 258 258 258
309 307 307 306 305 304 304 303 301 297 294 292 289 285 283 281 278 274 270 267 263 259 258 257 256 255 256 255 255 255 255 254 254 253 253 254 254 255 255 256 257 257 257 258
309 308 307 306 305 304 304 304 302 300 298 295 292 289 287 284 283 279 274 270 266 263 260 258 257 256 255 255 255 255 254 253 253 253 253 253 254 254 255 255 255 256 257 258
308 306 305 304 305 305 305 305 304 302 300 297 293 290 288 286 285 282 278 274 272 269 265 262 261 259 258 257 256 255 255 254 253 253 253 253 254 255 255 255 256 257 257 258
307 305 304 303 303 305 306 305 304 302 300 298 295 292 289 287 285 283 281 278 275 273 270 267 265 263 261 259 257 256 254 254 253 253 253 254 254 256 256 256 257 257 257 258
306 305 304 304 305 306 307 306 305 303 299 297 294 291 288 286 284 283 283 282 279 277 275 273 269 266 263 260 258 255 253 252 252 253 253 254 254 255 256 256 256 256 257 258
Height
5498 5499 5499 5502 5504 5506 5508 5510 5513 5517 5520 5524 5528 5531 5536 5539 5543 5548 5552 5557 5561 5565 5570 5574 5578 5583 5587 5591 5596 5600 5605 5609 5613 5617 5620 5623 5627 5629 5632 5635 5637 5639 5641 5643
5492 5493 5493 5495 5497 5499 5501 5503 5505 5508 5512 5514 5518 5522 5525 5529 5533 5537 5542 5546 5550 5554 5558 5562 5567 5571 5575 5580 5584 5588 5593 5597 5601 5605 5608 5612 5615 5618 5620 5623 5626 5628 5630 5632
5487 5487 5487 5489 5491 5492 5494 5495 5498 5500 5504 5505 5509 5512 5516 5519 5523 5526 5530 5535 5539 5543 5547 5551 5555 5559 5563 5568 5572 5576 5581 5585 5589 5592 5596 5600 5603 5606 5609 5611 5614 5616 5619 5621
5481 5482 5482 5485 5485 5486 5487 5488 5490 5492 5495 5497 5500 5503 5506 5509 5512 5516 5520 5524 5528 5532 5536 5540 5544 5548 5552 5556 5560 5565 5569 5573 5576 5580 5584 5588 5591 5594 5597 5600 5602 5605 5607 5609
5476 5476 5476 5479 5479 5479 5481 5482 5483 5485 5487 5489 5492 5495 5498 5500 5503 5506 5510 5514 5518 5521 5525 5529 5532 5537 5541 5545 5549 5553 5557 5561 5565 5568 5572 5576 5579 5582 5585 5588 5590 5593 5595 5597
5471 5471 5472 5474 5474 5474 5476 5476 5477 5478 5479 5481 5483 5486 5490 5491 5494 5497 5500 5503 5507 5511 5514 5517 5521 5526 5530 5534 5538 5542 5546 5550 5554 5557 5560 5564 5567 5570 5573 5576 5578 5581 5583 5585
5467 5466 5467 5468 5468 5469 5471 5470 5470 5471 5472 5473 5475 5477 5480 5482 5485 5487 5490 5493 5496 5499 5503 5507 5510 5515 5519 5523 5528 5531 5535 5539 5542 5546 5549 5552 5555 5558 5561 5564 5566 5569 5571 5573
5463 5463 5465 5463 5463 5464 5463 5463 5463 5464 5465 5466 5467 5469 5471 5473 5476 5478 5481 5484 5486 5489 5492 5496 5500 5504 5508 5512 5517 5520 5524 5527 5531 5535 5538 5541 5544 5546 5549 5551 5554 5556 5558 5560
5460 5460 5459 5458 5457 5457 5456 5457 5457 5457 5458 5459 5460 5461 5463 5465 5467 5469 5472 5474 5477 5480 5482 5486 5489 5493 5498 5502 5506 5509 5513 5516 5520 5523 5526 5529 5532 5534 5537 5539 5541 5543 5546 5548
5455 5454 5453 5453 5452 5451 5450 5450 5450 5451 5451 5452 5453 5454 5455 5457 5459 5461 5463 5465 5468 5471 5473 5476 5480 5484 5488 5491 5495 5499 5502 5505 5509 5512 5515 5517 5520 5522 5524 5527 5529 5531 5533 5535
5451 5450 5449 5448 5447 5446 5445 5444 5444 5444 5445 5445 5446 5447 5448 5450 5451 5453 5455 5457 5460 5462 5465 5468 5471 5474 5478 5481 5485 5488 5491 5494 5497 5500 5503 5505 5508 5510 5512 5514 5516 5519 5520 5522
5447 5446 5445 5444 5442 5441 5440 5439 5438 5438 5438 5439 5439 5440 5442 5443 5444 5446 5448 5449 5452 5454 5456 5459 5462 5465 5468 5472 5475 5478 5481 5484 5487 5489 5491 5494 5496 5499 5500 5503 5504 5506 5508 5509
5443 5442 5440 5439 5437 5436 5435 5434 5433 5432 5432 5432 5433 5434 5435 5436 5437 5439 5440 5442 5444 5446 5448 5451 5453 5456 5459 5463 5466 5468 5471 5474 5476 5479 5481 5483 5485 5487 5489 5491 5493 5494 5496 5497
5439 5437 5436 5434 5432 5431 5429 5428 5427 5426 5426 5426 5426 5427 5428 5429 5430 5432 5433 5434 5436 5438 5441 5443 5445 5448 5450 5453 5456 5459 5461 5464 5466 5468 5470 5472 5474 5476 5477 5479 5482 5483 5485 5486
5435 5433 5431 5429 5427 5425 5424 5423 5422 5421 5420 5419 5420 5420 5421 5422 5423 5424 5426 5427 5429 5431 5433 5435 5437 5439 5441 5444 5446 5449 5451 5453 5455 5457 5459 5462 5464 5465 5467 5469 5470 5472 5474 5475
5431 5429 5427 5424 5422 5421 5419 5417 5416 5415 5414 5413 5413 5414 5415 5416 5417 5418 5419 5420 5421 5423 5425 5426 5428 5430 5432 5435 5437 5439 5441 5443 5445 5447 5449 5451 5453 5455 5457 5458 5460 5461 5463 5465
5427 5425 5422 5420 5418 5415 5414 5412 5411 5409 5408 5408 5408 5408 5409 5409 5410 5411 5411 5412 5414 5415 5416 5418 5420 5421 5423 5425 5427 5429 5431 5433 5435 5437 5439 5441 5443 5444 5446 5448 5449 5451 5452 5453
5422 5420 5417 5415 5413 5410 5409 5407 5405 5404 5403 5403 5402 5402 5403 5403 5404 5404 5405 5405 5406 5407 5408 5410 5411 5413 5414 5416 5417 5419 5421 5423 5425 5427 5428 5430 5432 5434 5435 5437 5438 5440 5441 5442
5418 5415 5413 5410 5408 5406 5404 5402 5401 5399 5398 5398 5397 5397 5397 5397 5397 5397 5397 5398 5398 5399 5400 5401 5403 5404 5405 5407 5408 5410 5411 5413 5415 5416 5418 5420 5421 5423 5424 5426 5428 5429 5430 5431
5413 5411 5408 5406 5403 5401 5399 5397 5396 5395 5393 5393 5392 5391 5391 5391 5390 5390 5390 5390 5391 5391 5392 5393 5394 5396 5397 5398 5399 5401 5402 5404 5405 5407 5408 5410 5412 5413 5414 5416 5417 5418 5420 5421
5409 5406 5404 5401 5399 5397 5394 5393 5391 5390 5388 5387 5386 5385 5385 5384 5384 5383 5383 5383 5383 5384 5384 5385 5386 5387 5388 5389 5390 5392 5393 5394 5395 5397 5398 5400 5401 5403 5404 5405 5407 5408 5409 5410
5404 5402 5399 5397 5394 5392 5390 5388 5386 5384 5383 5381 5380 5379 5379 5378 5377 5376 5376 5376 5376 5376 5377 5377 5378 5379 5380 5381 5382 5383 5384 5385 5386 5387 5388 5389 5391 5392 5393 5395 5396 5397 5398 5399
5399 5396 5394 5392 5390 5388 5385 5383 5381 5379 5378 5376 5375 5374 5373 5372 5371 5370 5369 5369 5369 5369 5369 5370 5370 5371 5372 5372 5373 5374 5375 5376 5377 5378 5379 5380 5381 5382 5384 5385 5386 5387 5388 5389
5394 5391 5389 5386 5384 5382 5380 5378 5376 5374 5372 5371 5369 5368 5367 5366 5365 5364 5363 5362 5362 5362 5362 5363 5363 5364 5364 5365 5366 5366 5367 5368 5369 5370 5371 5372 5373 5374 5375 5376 5377 5378 5379 5380
5388 5386 5383 5381 5379 5377 5375 5373 5371 5369 5367 5365 5364 5362 5361 5360 5359 5358 5357 5357 5356 5356 5356 5356 5356 5356 5357 5357 5358 5359 5359 5360 5361 5362 5363 5364 5365 5366 5366 5367 5368 5369 5370 5371
5383 5380 5378 5376 5374 5372 5370 5368 5365 5363 5361 5360 5358 5357 5356 5355 5354 5353 5352 5351 5350 5350 5349 5349 5349 5349 5349 5350 5350 5351 5351 5352 5353 5354 5355 5356 5357 5358 5358 5359 5360 5360 5361 5362
5377 5375 5373 5371 5369 5366 5364 5362 5360 5358 5356 5354 5353 5352 5351 5349 5348 5348 5347 5346 5345 5344 5343 5343 5342 5342 5342 5342 5342 5343 5344 5344 5345 5346 5347 5348 5349 5349 5350 5351 5351 5352 5352 5353